Location: Kra?nica
(53.4833°N, 14.6167°E)
Time: 18:11:36
(UTC+00:00)

Cosmos 2322 - Pass Details

Date: 23 May 2024
Orbit: 839 x 854 km, 71.0° (Epoch: 12 June)

Event Time Altitude Azimuth Distance (km) Brightness Sun altitude
Rises 01:36:08 0° 328° (NNW) 3,434 7.2 -8.4°
Reaches altitude 10° 01:38:38 10° 331° (NNW) 2,493 6.5 -8.2°
Maximum altitude 01:44:19 63° 53° (NE) 948 4.3 -7.7°
Drops below altitude 10° 01:49:57 10° 135° (SE) 2,469 6.1 -7.1°
Sets 01:52:25 0° 138° (SE) 3,399 6.8 -6.9°
